This is the latest recevied weather packets stored in our database for station/object KC8VEU. If no packets are shown the sender has not sent any weather packets the latest 10 day(s).
| Time | Temp. | Humidity | Pressure | Rain* | Wind** | Luminosity | Snow |
|---|---|---|---|---|---|---|---|
| 1777842317 | 14.44° C | 38% | 992.3 hPa | 0 mm | - | - | - |
| 1777839317 | 15° C | 51% | 992.3 hPa | 0 mm | - | - | - |
| 1777836317 | 15° C | 52% | 992.6 hPa | 0 mm | - | - | - |
| 1777834517 | 15° C | 53% | 992.8 hPa | 0 mm | - | - | - |
| 1777831516 | 15° C | 52% | 993 hPa | 0 mm | - | - | - |
| 1777826117 | 14.44° C | 56% | 993.5 hPa | 0 mm | - | - | - |
| 1777815317 | 12.22° C | 65% | 994.6 hPa | 0 mm | - | - | - |
| 1777814716 | 11.67° C | 66% | 994.7 hPa | 0 mm | - | - | - |
| 1777814116 | 11.67° C | 67% | 994.8 hPa | 0 mm | - | - | - |
| 1777813557 | 11.11° C | 68% | 994.7 hPa | 0 mm | - | - | - |
| 1777811717 | 10° C | 71% | 994.9 hPa | 0 mm | - | - | - |
| 1777811116 | 9.44° C | 71% | 995 hPa | 0 mm | - | - | - |
| 1777808116 | 7.78° C | 75% | 995.4 hPa | 0 mm | - | - | - |
| 1777803916 | 5.56° C | 79% | 995.7 hPa | 0 mm | - | - | - |
| 1777795816 | 6.11° C | 61% | 996.7 hPa | 0 mm | - | - | - |
| 1777791616 | 7.22° C | 50% | 997.4 hPa | 0 mm | - | - | - |
| 1777779617 | 5.56° C | 51% | 999.6 hPa | 0 mm | - | - | - |
| 1777777217 | 5.56° C | 50% | 1000.2 hPa | 0 mm | - | - | - |
| 1777776917 | 5.56° C | 50% | 1000.3 hPa | 0 mm | - | - | - |
| 1777772116 | 5.56° C | 45% | 1001 hPa | 0 mm | - | - | - |
| 1777767917 | 7.78° C | 41% | 1001.5 hPa | 0 mm | - | - | - |
| 1777763137 | 12.22° C | 24% | 1002.2 hPa | 0 mm | - | - | - |
| 1777762517 | 12.78° C | 26% | 1002.3 hPa | 0 mm | - | - | - |
| 1777757716 | 11.11° C | 29% | 1002.9 hPa | 0 mm | - | - | - |
| 1777754117 | 10.56° C | 30% | 1003.8 hPa | 0 mm | - | - | - |
* Rain latest hour (hover to see other rain measurements)
** Current wind speed in m/s (hover to see current wind gust speed)